Total_Precipitation_Accumulation
3.10 3.35 4.12 3.87 3.57 3.35 3.19 3.07 2.89 2.87 3.00 3.15 3.11 3.11 3.12 3.18 3.30 3.41 3.59 3.71 3.96 4.28 4.54 4.60 4.26 4.31 4.27 4.17 3.80 3.26 2.85 2.81 2.75 2.50 2.29 2.25 2.22 2.40 2.83 3.02 2.81 2.22 2.19
2.61 2.98 3.65 3.51 3.32 3.16 3.01 2.96 2.85 2.82 2.99 3.14 3.16 3.10 3.16 3.14 3.18 3.20 3.41 3.79 4.14 4.37 4.53 4.21 4.00 4.09 4.04 3.99 3.55 3.10 2.77 2.70 2.66 2.64 2.47 2.12 2.29 2.65 3.04 3.13 3.12 2.32 2.24
2.26 2.61 2.78 3.12 3.03 2.94 2.84 2.94 3.27 3.32 3.27 3.16 3.12 3.01 3.03 3.03 3.10 3.23 3.50 3.80 4.08 4.10 4.13 3.94 3.77 3.69 3.61 3.58 3.26 2.92 2.74 2.62 2.64 2.82 2.96 2.07 1.87 2.60 2.92 2.98 2.76 2.16 2.00
2.08 2.33 2.41 2.87 2.79 2.56 2.72 2.97 3.29 3.46 3.42 3.29 3.16 2.98 2.93 3.05 3.21 3.36 3.36 3.52 3.71 3.62 3.45 3.51 3.61 3.54 3.42 3.24 2.99 2.84 2.77 2.72 2.88 3.20 3.18 2.24 1.73 2.19 2.65 2.62 2.34 2.00 1.82
2.04 2.27 2.64 2.75 2.57 2.43 2.57 2.87 3.21 3.39 3.30 3.23 3.14 3.01 3.06 3.01 3.05 3.11 3.10 3.26 3.36 3.40 3.30 3.21 3.35 3.46 3.41 3.26 2.97 2.86 2.77 2.82 3.16 3.13 2.68 2.52 2.42 2.40 2.47 2.44 2.25 2.02 1.88
1.69 2.05 2.49 2.71 2.56 2.49 2.76 2.92 3.06 3.11 3.02 2.98 2.96 3.01 2.98 2.88 2.91 2.88 2.84 2.91 3.17 3.23 2.99 2.92 3.22 3.46 3.55 3.29 2.93 3.00 3.04 3.14 3.03 2.45 2.26 2.26 2.36 2.49 2.43 2.53 2.49 2.26 2.08
1.59 1.91 2.34 2.72 2.56 2.53 2.65 2.81 3.01 3.14 3.06 2.87 2.80 2.71 2.74 2.79 2.81 2.72 2.56 2.64 2.86 2.88 2.71 2.73 3.10 3.31 3.45 3.21 3.03 3.27 3.25 3.22 2.71 2.28 2.14 2.34 2.20 2.14 2.31 2.59 2.80 2.57 2.23
1.38 1.67 2.02 2.51 2.49 2.43 2.47 2.61 2.79 2.90 2.88 2.72 2.51 2.42 2.49 2.56 2.55 2.49 2.44 2.60 2.59 2.49 2.55 2.70 3.03 2.93 3.06 3.24 3.28 3.50 3.39 2.85 2.18 2.15 2.00 2.05 1.74 1.87 2.30 2.56 2.68 2.53 2.23
1.28 1.41 1.78 2.16 2.34 2.38 2.56 2.60 2.52 2.48 2.39 2.29 2.15 2.22 2.37 2.45 2.35 2.28 2.34 2.48 2.43 2.47 2.64 2.87 3.06 2.85 2.94 3.28 3.34 3.41 3.27 2.75 2.14 2.12 1.88 2.09 1.96 2.16 2.55 2.62 2.53 2.50 2.22
1.53 1.53 1.76 1.95 2.08 2.17 2.30 2.45 2.40 2.34 2.15 2.01 1.98 2.07 2.15 2.24 2.23 2.14 2.13 2.37 2.36 2.47 2.55 2.82 2.94 2.75 3.02 3.26 3.34 3.30 3.15 2.56 1.97 1.99 2.04 1.88 2.05 2.48 2.84 2.84 2.75 2.68 2.47
1.82 1.83 1.78 1.76 1.78 1.96 2.05 2.14 2.39 2.37 2.23 2.12 2.18 2.22 2.24 2.24 2.03 2.02 2.11 2.52 2.53 2.66 2.73 2.91 3.01 3.20 3.31 3.17 3.35 3.28 2.86 2.38 2.28 2.25 2.26 1.97 2.22 2.78 3.07 3.03 2.97 3.01 2.82
1.93 1.98 2.01 1.91 1.72 1.83 1.86 2.17 2.35 2.04 2.11 2.22 2.35 2.19 2.21 2.31 2.29 2.07 2.46 2.79 2.97 3.25 3.34 3.48 3.64 3.52 3.22 3.22 3.69 3.58 2.70 2.53 2.35 2.37 2.61 2.36 2.56 3.15 3.46 3.29 3.15 3.22 3.13
2.00 1.80 2.00 2.26 2.19 2.15 2.23 2.11 2.11 2.14 2.30 2.30 2.11 2.06 2.26 2.02 1.88 2.08 2.43 2.75 3.06 3.40 3.69 3.92 4.00 3.64 3.62 3.88 4.00 3.55 2.77 2.45 2.40 2.22 2.57 2.61 2.82 3.42 3.88 3.70 3.53 3.50 3.44
2.23 1.90 1.91 2.15 2.44 2.43 2.28 2.17 2.06 2.05 2.16 2.15 2.24 2.09 2.25 2.26 2.26 2.48 2.97 3.09 3.33 3.47 4.01 4.11 4.47 4.23 3.91 3.60 3.64 3.46 3.00 2.84 2.61 2.66 2.96 2.54 2.72 3.32 4.04 4.13 3.99 3.81 3.59
2.53 2.24 2.11 2.08 2.40 2.51 2.52 2.36 2.07 2.17 2.15 2.28 2.44 2.31 2.36 2.48 2.81 3.12 3.26 3.63 3.56 3.60 3.97 4.44 4.45 4.72 4.67 4.46 4.12 3.74 3.62 3.33 2.99 3.06 3.12 2.91 2.80 3.10 3.84 4.42 4.38 4.16 3.86
2.87 2.73 2.44 2.31 2.44 2.56 2.62 2.60 2.53 2.44 2.61 2.62 2.69 2.68 2.77 2.99 3.35 3.74 3.82 3.97 3.79 3.79 4.27 4.61 4.71 5.30 5.14 4.87 4.30 3.99 3.76 3.59 3.28 3.11 3.27 3.39 2.96 2.85 3.39 4.29 4.72 4.62 4.44
3.06 3.16 3.03 2.88 2.93 3.04 3.32 3.25 2.94 2.98 2.99 3.09 3.22 3.28 3.23 3.34 3.83 4.17 4.15 4.05 4.08 4.09 4.51 4.80 4.94 5.10 4.80 4.56 4.40 4.16 3.97 3.72 3.29 3.28 3.28 3.47 3.28 3.06 3.31 3.79 4.38 4.63 4.80
3.12 3.54 3.61 3.34 3.56 3.79 4.08 4.09 3.73 3.66 3.60 3.58 3.49 3.53 3.47 3.59 3.88 4.46 4.24 4.08 4.50 4.36 4.65 5.28 5.32 5.23 5.19 4.90 4.70 4.24 3.95 3.77 3.23 3.15 3.16 3.37 3.74 3.23 3.31 3.72 4.03 4.24 4.87
3.18 3.74 4.02 4.14 4.36 4.45 4.59 4.65 4.45 4.27 4.08 3.73 3.70 3.71 3.58 3.65 3.83 4.30 4.18 4.29 4.32 4.71 4.93 4.55 5.29 5.43 5.26 4.94 4.19 3.96 3.55 3.39 3.36 3.03 3.16 3.20 3.58 3.42 3.45 3.53 3.82 4.04 4.81
3.45 3.93 4.52 4.82 5.01 4.81 4.82 4.91 4.66 4.25 4.06 3.84 3.79 3.76 3.56 3.66 3.72 4.26 4.10 4.09 4.13 4.65 4.88 4.83 5.29 5.27 4.92 4.77 3.71 3.55 3.41 3.04 3.00 3.06 2.87 3.06 3.34 3.01 3.29 3.61 4.05 3.59 3.94
3.93 4.25 4.60 5.10 5.43 5.37 5.46 5.39 5.24 4.87 4.62 4.18 3.71 3.37 3.32 3.33 3.58 4.16 3.83 4.29 4.19 4.39 4.51 4.48 4.85 4.98 4.58 4.54 4.44 3.96 3.16 2.71 2.65 2.66 2.72 2.91 2.91 3.02 3.70 4.31 4.49 4.31 4.06
3.74 4.26 4.69 4.77 4.75 4.64 4.91 5.31 5.51 5.45 4.89 4.21 3.81 3.69 3.31 3.23 3.43 3.69 4.07 3.98 4.04 4.26 4.28 4.31 4.67 4.63 4.16 4.26 4.52 4.58 3.77 3.40 2.81 2.15 2.49 2.64 2.78 3.22 3.54 3.77 4.18 4.54 4.68
3.17 3.73 3.95 3.91 3.84 3.75 3.89 4.29 4.60 4.93 4.71 4.36 4.02 3.75 3.31 3.18 3.21 3.42 3.74 3.80 3.88 3.73 3.97 4.21 4.18 4.23 4.17 4.08 4.10 4.60 4.26 3.79 3.13 2.47 2.28 2.41 2.81 3.17 3.26 3.51 3.54 3.88 4.20
2.39 2.66 2.82 3.05 3.21 3.27 3.31 3.52 3.78 4.07 4.14 4.14 4.06 3.71 3.32 3.01 2.99 3.18 3.35 3.37 3.43 3.39 3.70 3.41 3.56 3.94 4.20 4.04 3.89 3.77 3.84 3.99 3.83 3.10 2.54 2.40 2.71 2.91 2.91 2.88 3.18 3.64 3.75
2.16 2.39 2.53 2.86 3.07 3.18 3.16 3.22 3.45 3.78 3.81 3.63 3.51 3.61 3.39 3.11 2.85 2.80 3.01 3.13 3.11 3.04 3.18 3.24 3.62 3.59 3.78 3.81 3.80 3.75 3.83 3.85 3.65 3.47 3.07 2.88 2.79 2.50 2.48 2.66 2.99 3.33 3.49
1.95 2.16 2.40 2.67 2.72 2.82 2.88 2.88 2.93 3.16 3.34 3.21 3.10 3.12 3.00 2.88 2.79 2.71 2.77 2.96 2.87 2.86 3.02 3.17 3.29 3.30 3.43 3.55 3.53 3.56 3.85 3.74 3.62 3.71 3.27 3.06 2.93 2.55 2.49 2.59 2.76 3.09 3.26